Humidity-temperature Sensor

Selected Measurement Type: Relative Humidity

 
Relative Humidity [%]     6 entries per hour
Showing data from 12/22/2016 (00:00:00 Z) to 12/15/2016 (00:01:00 Z)
Previous Next [ Day | 3-Days | 7-Days ]
First Last
Prev [ Day | 3-Days | 7-Days ] Next
First Last

Start Time:     :
End Time:     :     
Time (in GMT) :00 :50 :40 :30 :20 :10
Previous Next [ Day | 3-Days | 7-Days ]
First Last
Prev [ Day | 3-Days | 7-Days ] Next
First Last


123 => good data
MM => data is determined as missing
-- => data not received/configured
Back to Top Back to Top
12/22/2016 00:00 to 23:10 72.37 73.14 73.98 72.78 71.68 72.27
12/21/2016 23:00 to 22:10 73.03 74.03 73.39 72.97 72.71 72.42
12/21/2016 22:00 to 21:10 72.50 72.91 73.43 73.22 73.01 73.41
12/21/2016 21:00 to 20:10 73.63 74.90 74.64 75.21 75.62 74.96
12/21/2016 20:00 to 19:10 75.15 74.68 74.43 75.21 74.88 74.96
12/21/2016 19:00 to 18:10 74.87 75.32 75.49 75.98 74.77 74.98
12/21/2016 18:00 to 17:10 74.16 73.33 73.94 74.90 74.96 75.24
12/21/2016 17:00 to 16:10 76.53 75.96 76.57 75.85 76.72 76.97
12/21/2016 16:00 to 15:10 77.86 78.18 77.92 78.69 79.89 80.85
12/21/2016 15:00 to 14:10 80.00 80.57 79.77 79.58 79.68 80.32
12/21/2016 14:00 to 13:10 79.11 78.56 77.67 78.31 80.15 79.66
12/21/2016 13:00 to 12:10 79.26 78.67 79.05 79.70 80.23 81.17
12/21/2016 12:00 to 11:10 80.83 80.36 80.96 81.31 81.72 80.21
12/21/2016 11:00 to 10:10 80.78 79.92 79.26 80.21 80.62 81.61
12/21/2016 10:00 to 9:10 81.63 82.31 81.31 81.02 81.80 81.40
12/21/2016 09:00 to 8:10 82.16 82.48 82.10 81.32 81.55 81.12
12/21/2016 08:00 to 7:10 80.89 81.06 80.76 81.06 81.74 82.78
12/21/2016 07:00 to 6:10 81.97 82.18 82.54 82.73 82.88 83.43
12/21/2016 06:00 to 5:10 83.07 82.99 82.92 82.39 82.82 83.07
12/21/2016 05:00 to 4:10 82.20 82.10 81.36 80.28 79.41 79.17
12/21/2016 04:00 to 3:10 79.28 78.28 78.18 77.63 79.22 78.81
12/21/2016 03:00 to 2:10 79.26 78.84 78.81 78.05 78.14 77.63
12/21/2016 02:00 to 1:10 77.25 76.68 76.42 76.95 76.76 76.91
12/21/2016 01:00 to 0:10 76.57 76.72 76.74 76.51 76.42 76.84
12/21/2016 00:00 to 23:10 76.61 77.01 78.39 78.96 79.34 80.70
12/20/2016 23:00 to 22:10 80.19 80.28 80.19 79.98 79.22 78.35
12/20/2016 22:00 to 21:10 77.69 77.67 78.64 77.59 78.28 78.62
12/20/2016 21:00 to 20:10 77.90 78.24 78.50 80.09 80.53 80.66
12/20/2016 20:00 to 19:10 80.13 79.68 79.60 79.39 78.52 79.85
12/20/2016 19:00 to 18:10 79.30 78.98 79.00 79.09 79.75 78.09
12/20/2016 18:00 to 17:10 78.86 80.25 79.13 78.35 77.74 77.14
12/20/2016 17:00 to 16:10 77.54 78.05 80.32 78.84 79.24 79.37
12/20/2016 16:00 to 15:10 80.02 79.13 78.03 78.48 79.18 78.46
12/20/2016 15:00 to 14:10 77.99 79.30 78.50 79.24 80.15 79.79
12/20/2016 14:00 to 13:10 79.51 79.15 79.18 80.13 80.74 80.93
12/20/2016 13:00 to 12:10 81.08 81.34 82.42 82.61 82.61 82.29
12/20/2016 12:00 to 11:10 81.27 81.84 81.29 81.82 81.00 81.29
12/20/2016 11:00 to 10:10 81.80 83.73 84.13 84.13 84.49 84.66
12/20/2016 10:00 to 9:10 84.77 85.23 85.61 85.62 85.53 85.59
12/20/2016 09:00 to 8:10 85.34 85.62 85.55 85.89 85.36 85.09
12/20/2016 08:00 to 7:10 84.62 84.26 83.67 83.94 84.30 84.39
12/20/2016 07:00 to 6:10 84.15 84.03 84.11 84.05 83.86 83.86
12/20/2016 06:00 to 5:10 84.32 85.51 86.74 86.87 86.57 86.04
12/20/2016 05:00 to 4:10 85.51 85.55 85.15 84.30 84.83 84.26
12/20/2016 04:00 to 3:10 84.45 84.17 83.41 83.26 82.88 83.47
12/20/2016 03:00 to 2:10 83.73 83.48 83.71 83.37 84.07 83.83
12/20/2016 02:00 to 1:10 83.69 82.48 82.46 82.54 81.89 82.46
12/20/2016 01:00 to 0:10 82.42 81.50 81.32 81.61 82.63 82.54
12/20/2016 00:00 to 23:10 81.99 81.25 81.51 81.61 81.17 81.14
12/19/2016 23:00 to 22:10 81.57 81.38 81.97 81.21 81.14 80.61
12/19/2016 22:00 to 21:10 80.57 80.53 80.78 80.11 79.58 79.85
12/19/2016 21:00 to 20:10 80.06 80.09 80.19 80.15 80.30 79.79
12/19/2016 20:00 to 19:10 79.01 79.13 79.28 79.41 79.98 80.19
12/19/2016 19:00 to 18:10 80.02 80.38 80.36 79.35 79.24 79.34
12/19/2016 18:00 to 17:10 -- -- -- -- -- --
12/19/2016 17:00 to 16:10 81.63 81.89 81.29 81.27 80.95 81.10
12/19/2016 16:00 to 15:10 81.82 81.27 81.72 82.10 80.93 80.61
12/19/2016 15:00 to 14:10 81.29 81.93 83.01 82.52 82.12 82.56
12/19/2016 14:00 to 13:10 81.93 81.82 81.21 81.12 81.68 82.08
12/19/2016 13:00 to 12:10 81.65 81.44 82.56 82.88 82.56 82.50
12/19/2016 12:00 to 11:10 81.76 81.29 80.87 80.91 80.81 80.66
12/19/2016 11:00 to 10:10 79.66 81.27 81.31 81.84 80.81 82.22
12/19/2016 10:00 to 9:10 81.78 81.93 81.46 81.36 82.39 82.37
12/19/2016 09:00 to 8:10 81.84 82.71 82.29 81.63 80.62 80.76
12/19/2016 08:00 to 7:10 81.42 82.90 82.40 82.04 82.23 82.50
12/19/2016 07:00 to 6:10 84.41 84.03 83.73 84.11 84.11 83.65
12/19/2016 06:00 to 5:10 82.52 81.67 82.40 82.54 82.14 81.99
12/19/2016 05:00 to 4:10 82.37 81.80 81.21 80.57 81.29 81.31
12/19/2016 04:00 to 3:10 80.49 80.76 80.34 80.72 79.71 79.77
12/19/2016 03:00 to 2:10 79.35 78.24 78.20 78.48 77.78 79.54
12/19/2016 02:00 to 1:10 79.18 78.94 79.15 81.46 81.14 81.15
12/19/2016 01:00 to 0:10 80.26 80.47 80.13 80.04 79.37 79.22
12/19/2016 00:00 to 23:10 78.73 78.56 77.90 78.01 77.88 78.52
12/18/2016 23:00 to 22:10 79.03 78.52 78.41 79.09 79.24 78.84
12/18/2016 22:00 to 21:10 78.43 78.98 78.58 78.16 78.92 78.84
12/18/2016 21:00 to 20:10 78.67 78.81 79.28 79.32 78.43 78.20
12/18/2016 20:00 to 19:10 78.09 76.80 76.55 77.10 77.90 78.75
12/18/2016 19:00 to 18:10 78.14 77.78 77.67 76.38 77.03 78.35
12/18/2016 18:00 to 17:10 77.99 76.36 76.57 77.37 77.03 77.97
12/18/2016 17:00 to 16:10 77.50 78.07 78.01 80.15 80.23 79.26
12/18/2016 16:00 to 15:10 79.53 79.09 78.39 79.20 78.03 77.78
12/18/2016 15:00 to 14:10 77.21 75.49 78.26 79.89 78.79 77.31
12/18/2016 14:00 to 13:10 77.12 79.32 78.65 78.94 78.39 78.71
12/18/2016 13:00 to 12:10 78.31 77.67 77.73 78.35 78.24 78.64
12/18/2016 12:00 to 11:10 77.25 77.65 78.12 78.33 77.54 77.57
12/18/2016 11:00 to 10:10 76.10 77.04 77.56 77.69 77.46 76.55
12/18/2016 10:00 to 9:10 76.19 76.65 76.51 76.32 76.04 74.71
12/18/2016 09:00 to 8:10 75.21 74.96 75.70 74.64 75.38 75.93
12/18/2016 08:00 to 7:10 76.61 75.85 76.38 75.87 76.15 76.04
12/18/2016 07:00 to 6:10 75.09 75.06 75.77 75.66 76.08 76.23
12/18/2016 06:00 to 5:10 75.87 75.77 75.49 75.85 74.90 75.15
12/18/2016 05:00 to 4:10 75.34 74.90 75.45 75.68 75.42 75.23
12/18/2016 04:00 to 3:10 75.64 75.19 75.24 75.62 75.15 75.68
12/18/2016 03:00 to 2:10 75.45 74.77 75.91 74.98 74.22 73.63
12/18/2016 02:00 to 1:10 73.98 72.74 73.24 72.12 73.41 72.54
12/18/2016 01:00 to 0:10 73.27 72.65 72.99 72.35 72.63 73.03
12/18/2016 00:00 to 23:10 72.88 72.95 72.71 72.84 72.99 72.54
12/17/2016 23:00 to 22:10 71.15 72.27 73.14 73.10 72.88 73.35
12/17/2016 22:00 to 21:10 73.98 72.91 70.98 71.17 72.73 70.83
12/17/2016 21:00 to 20:10 71.25 70.60 69.01 70.57 71.27 71.59
12/17/2016 20:00 to 19:10 72.23 72.97 74.51 74.73 74.34 72.80
12/17/2016 19:00 to 18:10 72.01 72.10 72.12 68.71 69.45 69.24
12/17/2016 18:00 to 17:10 68.20 68.14 68.43 68.01 70.40 70.66
12/17/2016 17:00 to 16:10 69.62 69.98 68.20 70.13 70.21 68.71
12/17/2016 16:00 to 15:10 69.41 69.52 70.36 71.95 70.93 70.11
12/17/2016 15:00 to 14:10 69.85 70.30 69.43 71.06 72.61 73.98
12/17/2016 14:00 to 13:10 73.01 72.71 72.33 72.14 72.76 72.93
12/17/2016 13:00 to 12:10 72.55 73.71 75.09 75.00 74.09 73.86
12/17/2016 12:00 to 11:10 73.29 73.07 74.77 75.15 76.00 74.56
12/17/2016 11:00 to 10:10 76.23 76.70 75.87 76.76 77.25 77.61
12/17/2016 10:00 to 9:10 78.14 76.87 76.40 76.59 76.02 76.48
12/17/2016 09:00 to 8:10 76.67 76.51 77.01 75.06 75.11 75.32
12/17/2016 08:00 to 7:10 76.70 76.34 75.30 76.15 76.34 74.54
12/17/2016 07:00 to 6:10 75.87 74.96 75.02 75.34 76.87 75.49
12/17/2016 06:00 to 5:10 74.70 73.82 75.57 74.66 74.71 75.17
12/17/2016 05:00 to 4:10 75.83 75.51 74.54 74.39 73.63 75.11
12/17/2016 04:00 to 3:10 74.73 74.20 74.34 72.95 73.94 74.26
12/17/2016 03:00 to 2:10 75.36 74.03 74.13 73.33 74.09 73.16
12/17/2016 02:00 to 1:10 73.92 74.11 74.71 74.77 74.96 74.88
12/17/2016 01:00 to 0:10 74.68 74.52 74.71 73.65 73.37 74.56
12/17/2016 00:00 to 23:10 74.66 74.87 73.09 75.19 73.98 75.76
12/16/2016 23:00 to 22:10 75.28 74.85 74.16 73.56 73.65 74.39
12/16/2016 22:00 to 21:10 74.05 74.22 74.51 73.99 74.58 73.18
12/16/2016 21:00 to 20:10 74.56 73.98 73.90 73.27 72.59 73.24
12/16/2016 20:00 to 19:10 73.90 74.45 73.58 73.86 71.84 74.60
12/16/2016 19:00 to 18:10 74.34 74.96 75.06 75.66 74.83 74.35
12/16/2016 18:00 to 17:10 74.24 72.50 73.46 72.88 72.18 71.70
12/16/2016 17:00 to 16:10 73.03 73.67 74.52 73.88 73.24 72.73
12/16/2016 16:00 to 15:10 75.06 73.27 74.18 74.52 74.30 75.85
12/16/2016 15:00 to 14:10 76.38 75.02 75.13 74.32 76.82 77.27
12/16/2016 14:00 to 13:10 77.56 76.51 75.76 75.81 76.82 76.23
12/16/2016 13:00 to 12:10 75.74 76.29 77.48 77.63 77.44 77.95
12/16/2016 12:00 to 11:10 76.53 76.70 77.37 78.52 78.45 78.48
12/16/2016 11:00 to 10:10 78.03 78.05 78.07 78.98 78.22 77.31
12/16/2016 10:00 to 9:10 77.69 78.05 76.99 78.71 78.18 78.48
12/16/2016 09:00 to 8:10 78.69 77.65 76.27 76.63 77.67 77.14
12/16/2016 08:00 to 7:10 77.84 77.04 76.70 75.83 75.79 76.32
12/16/2016 07:00 to 6:10 76.00 77.18 75.47 75.96 74.62 76.68
12/16/2016 06:00 to 5:10 76.65 76.38 76.29 75.59 75.02 76.34
12/16/2016 05:00 to 4:10 76.61 76.68 76.87 75.57 76.95 75.23
12/16/2016 04:00 to 3:10 76.74 76.27 75.13 74.60 74.43 76.27
12/16/2016 03:00 to 2:10 74.39 75.24 75.13 74.52 74.24 74.60
12/16/2016 02:00 to 1:10 74.77 74.37 74.45 75.23 75.21 75.02
12/16/2016 01:00 to 0:10 75.04 75.28 74.51 74.16 75.70 74.20
12/16/2016 00:00 to 23:10 75.30 75.68 76.36 76.65 75.91 76.15
12/15/2016 23:00 to 22:10 76.10 75.28 75.77 75.11 75.00 75.53
12/15/2016 22:00 to 21:10 77.23 76.40 76.17 75.32 74.20 74.62
12/15/2016 21:00 to 20:10 74.94 76.59 77.44 75.95 76.12 76.53
12/15/2016 20:00 to 19:10 76.12 77.31 76.53 77.12 76.48 76.08
12/15/2016 19:00 to 18:10 75.49 75.77 74.75 74.87 74.92 75.21
12/15/2016 18:00 to 17:10 75.00 75.32 75.07 74.52 74.26 74.85
12/15/2016 17:00 to 16:10 73.94 74.60 74.58 73.27 72.67 73.46
12/15/2016 16:00 to 15:10 74.22 73.62 73.45 73.58 73.05 74.39
12/15/2016 15:00 to 14:10 74.96 74.43 73.45 73.33 74.71 73.92
12/15/2016 14:00 to 13:10 74.85 73.16 74.94 74.92 74.94 73.31
12/15/2016 13:00 to 12:10 74.52 75.23 74.70 74.11 74.05 73.63
12/15/2016 12:00 to 11:10 74.88 74.30 73.98 74.92 73.99 74.15
12/15/2016 11:00 to 10:10 -- -- -- -- -- --
12/15/2016 10:00 to 9:10 71.91 72.42 70.94 71.32 70.43 70.21
12/15/2016 09:00 to 8:10 69.98 70.76 70.19 70.49 70.96 69.60
12/15/2016 08:00 to 7:10 68.44 70.58 71.17 71.34 68.75 69.71
12/15/2016 07:00 to 6:10 70.23 71.25 70.11 70.49 69.64 68.80
12/15/2016 06:00 to 5:10 -- -- -- -- -- --
12/15/2016 05:00 to 4:10 67.97 68.77 68.56 69.09 69.92 70.00
12/15/2016 04:00 to 3:10 69.87 70.81 69.35 68.14 67.02 68.24
12/15/2016 03:00 to 2:10 67.57 69.15 70.66 72.04 72.10 71.30
12/15/2016 02:00 to 1:10 71.87 72.08 71.87 73.18 74.22 73.84
12/15/2016 01:00 to 0:10 74.24 74.41 75.89 75.19 74.54 74.75